Mount Pleasant, IA

9:11 PM CDT on April 30, 2017 (GMT -0500)
Mount Pleasant Municipal

Weather History for KMPZ - March, 2014

Change the Weather History Date:

Wednesday, March 5, 2014

  Actual Average Record
Temperature  
Mean Temperature 24 °F -  
Max Temperature 27 °F 42 °F 71 °F (2009)
Min Temperature 19 °F 25 °F -15 °F (1960)
Degree Days  
Heating Degree Days 42    
Moisture  
Dew Point 18 °F    
Average Humidity 78    
Maximum Humidity 91    
Minimum Humidity 66    
Precipitation  
Precipitation 0.00 in - - ()
Sea Level Pressure  
Sea Level Pressure 30.29 in    
Wind  
Wind Speed 13 mph (ENE)    
Max Wind Speed 17 mph    
Max Gust Speed 24 mph    
Visibility 7 miles    
Events Snow    
Averages and records for this station are not official NWS values.
T = Trace of Precipitation, MM = Missing Value Source: NWS Daily Summary

Daily Weather History Graph

Daily Weather History Graph

Search for Another Location

Airport or City:

Trip Planner

Search our weather history database for the weather conditions in past years. The results will help you decide how hot, cold, wet, or windy it might be!

Date:

Astronomy

Mar. 05, 2014 Rise Set
Actual Time 6:33 AM CST 6:01 PM CST
Civil Twilight 6:06 AM CST 6:29 PM CST
Nautical Twilight 5:34 AM CST 7:01 PM CST
Astronomical Twilight 5:02 AM CST 7:32 PM CST
Moon 8:57 AM CST (3/5) 11:13 PM CST (3/5)
Length of Visible Light 12h 22m
Length of Day
11h 27m
Waxing Crescent, 23% of the Moon is Illuminated
Mar 5
Waxing Crescent
Mar 8
First Quarter
Mar 16
Full
Mar 23
Last Quarter
Mar 30
New

Hourly Weather History & Observations

Time (CST) Temp. Windchill Dew Point Humidity Pressure Visibility Wind Dir Wind Speed Gust Speed Precip Events Conditions
12:15 AM 21.0 °F 9.9 °F 12.7 °F 70% 30.17 in 10.0 mi ENE 10.4 mph - N/A   Clear
12:35 AM 20.8 °F 9.7 °F 12.9 °F 71% 30.17 in 10.0 mi ENE 10.4 mph - N/A   Scattered Clouds
12:55 AM 21.6 °F 11.3 °F 13.1 °F 70% 30.18 in 10.0 mi ENE 9.2 mph - N/A   Scattered Clouds
1:15 AM 21.6 °F 10.6 °F 14.0 °F 73% 30.17 in 10.0 mi ENE 10.4 mph - N/A   Mostly Cloudy
1:35 AM 21.9 °F 11.7 °F 14.5 °F 73% 30.18 in 10.0 mi ENE 9.2 mph - N/A   Overcast
1:55 AM 22.1 °F 12.0 °F 14.4 °F 72% 30.19 in 10.0 mi NE 9.2 mph - N/A   Overcast
2:15 AM 21.9 °F 9.8 °F 14.5 °F 73% 30.19 in 10.0 mi NE 12.7 mph - N/A   Overcast
2:35 AM 21.9 °F 10.4 °F 14.7 °F 74% 30.19 in 10.0 mi ENE 11.5 mph - N/A   Mostly Cloudy
2:55 AM 22.1 °F 8.9 °F 14.7 °F 73% 30.18 in 10.0 mi ENE 15.0 mph - N/A   Mostly Cloudy
3:15 AM 22.1 °F 8.9 °F 14.9 °F 74% 30.17 in 10.0 mi ENE 15.0 mph - N/A   Overcast
3:35 AM 22.1 °F 8.9 °F 14.9 °F 74% 30.17 in 10.0 mi ENE 15.0 mph - N/A   Overcast
3:55 AM 22.1 °F 10.0 °F 14.9 °F 74% 30.18 in 10.0 mi ENE 12.7 mph - N/A   Overcast
4:15 AM 22.1 °F 10.0 °F 14.9 °F 74% 30.18 in 10.0 mi ENE 12.7 mph - N/A   Overcast
4:35 AM 22.1 °F 10.0 °F 15.3 °F 75% 30.20 in 10.0 mi ENE 12.7 mph - N/A   Overcast
4:55 AM 22.5 °F 11.7 °F 15.4 °F 74% 30.20 in 10.0 mi ENE 10.4 mph - N/A   Overcast
5:15 AM 22.1 °F 10.0 °F 15.4 °F 76% 30.21 in 10.0 mi ENE 12.7 mph - N/A   Overcast
5:35 AM 22.1 °F 9.5 °F 14.9 °F 74% 30.22 in 10.0 mi ENE 13.8 mph - N/A   Overcast
5:55 AM 22.1 °F 8.9 °F 14.9 °F 74% 30.22 in 10.0 mi ENE 15.0 mph - N/A   Overcast
6:15 AM 22.1 °F 8.0 °F 14.7 °F 73% 30.23 in 10.0 mi ENE 17.3 mph - N/A   Overcast
6:35 AM 22.5 °F 9.4 °F 14.7 °F 72% 30.24 in 10.0 mi ENE 15.0 mph - N/A   Overcast
6:55 AM 22.8 °F 10.9 °F 14.7 °F 71% 30.25 in 10.0 mi NE 12.7 mph - N/A   Overcast
7:15 AM 22.8 °F 9.4 °F 14.4 °F 70% 30.26 in 10.0 mi ENE 16.1 mph - N/A   Overcast
7:35 AM 23.2 °F 9.8 °F 15.1 °F 71% 30.26 in 10.0 mi ENE 16.1 mph - N/A   Overcast
7:55 AM 23.7 °F 10.1 °F 15.4 °F 71% 30.27 in 10.0 mi ENE 17.3 mph 24.2 mph N/A   Overcast
8:15 AM 24.1 °F 10.6 °F 15.6 °F 70% 30.28 in 10.0 mi ENE 17.3 mph - N/A   Overcast
8:35 AM 24.4 °F 11.5 °F 16.2 °F 71% 30.28 in 10.0 mi ENE 16.1 mph 21.9 mph N/A   Overcast
8:55 AM 24.6 °F 11.3 °F 16.5 °F 71% 30.28 in 10.0 mi ENE 17.3 mph - N/A   Overcast
9:15 AM 25.3 °F 12.6 °F 16.7 °F 70% 30.29 in 10.0 mi East 16.1 mph - N/A   Overcast
9:35 AM 25.5 °F 12.4 °F 16.0 °F 67% 30.30 in 10.0 mi East 17.3 mph 23.0 mph N/A   Overcast
9:55 AM 26.2 °F 14.7 °F 16.5 °F 67% 30.30 in 10.0 mi East 13.8 mph - N/A   Overcast
10:15 AM 26.6 °F 14.7 °F 16.7 °F 66% 30.30 in 10.0 mi ENE 15.0 mph 23.0 mph N/A   Overcast
10:35 AM 26.6 °F 14.3 °F 18.0 °F 70% 30.31 in 10.0 mi ENE 16.1 mph - N/A   Overcast
10:55 AM 27.1 °F 15.4 °F 18.5 °F 70% 30.32 in 10.0 mi ENE 15.0 mph - N/A   Overcast
11:15 AM 27.5 °F 16.8 °F 18.3 °F 68% 30.32 in 10.0 mi ENE 12.7 mph - N/A   Overcast
11:35 AM 27.1 °F 15.4 °F 18.7 °F 70% 30.32 in 10.0 mi ENE 15.0 mph - N/A   Overcast
11:55 AM 27.3 °F 16.1 °F 19.0 °F 71% 30.33 in 5.0 mi ENE 13.8 mph - N/A   Haze
12:15 PM 26.6 °F 14.7 °F 20.3 °F 77% 30.32 in 1.2 mi ENE 15.0 mph - N/A Snow Light Snow
12:35 PM 26.2 °F 14.2 °F 21.0 °F 81% 30.33 in 1.5 mi ENE 15.0 mph - N/A Snow Light Snow
12:55 PM 26.1 °F 14.0 °F 21.0 °F 81% 30.33 in 1.2 mi ENE 15.0 mph - N/A Snow Light Snow
1:15 PM 26.2 °F 14.7 °F 21.6 °F 82% 30.32 in 1.0 mi ENE 13.8 mph - N/A Snow Light Snow
1:35 PM 26.1 °F 13.6 °F 21.6 °F 83% 30.32 in 0.8 mi ENE 16.1 mph - N/A Snow Light Snow
1:50 PM 26.2 °F 13.4 °F 21.6 °F 82% 30.32 in 1.0 mi ENE 17.3 mph - N/A Snow Light Snow
2:15 PM 25.7 °F 14.0 °F 21.2 °F 83% 30.32 in 1.5 mi ENE 13.8 mph - N/A Snow Light Snow
2:35 PM 25.2 °F 12.0 °F 20.3 °F 82% 30.32 in 1.5 mi ENE 17.3 mph - N/A Snow Light Snow
2:55 PM 25.0 °F 11.7 °F 20.1 °F 82% 30.33 in 1.2 mi ENE 17.3 mph - N/A Snow Light Snow
3:15 PM 24.8 °F 11.5 °F 20.1 °F 82% 30.33 in 1.5 mi ENE 17.3 mph - N/A Snow Light Snow
3:35 PM 24.8 °F 12.4 °F 20.3 °F 83% 30.33 in 1.5 mi ENE 15.0 mph - N/A Snow Light Snow
3:55 PM 24.6 °F 11.7 °F 20.3 °F 84% 30.32 in 1.2 mi ENE 16.1 mph - N/A Snow Light Snow
4:15 PM 24.3 °F 11.2 °F 20.1 °F 84% 30.32 in 2.5 mi ENE 16.1 mph - N/A   Overcast
4:35 PM 23.9 °F 10.3 °F 20.1 °F 85% 30.32 in 1.8 mi ENE 17.3 mph 23.0 mph N/A Snow Light Snow
4:55 PM 23.7 °F 10.1 °F 19.9 °F 85% 30.32 in 1.0 mi ENE 17.3 mph - N/A Snow Light Snow
5:15 PM 23.7 °F 11.0 °F 20.1 °F 86% 30.33 in 1.5 mi ENE 15.0 mph - N/A Snow Light Snow
5:35 PM 23.5 °F 10.8 °F 20.3 °F 87% 30.34 in 1.0 mi ENE 15.0 mph - N/A Snow Light Snow
5:55 PM 23.5 °F 10.8 °F 20.3 °F 87% 30.35 in 1.8 mi ENE 15.0 mph - N/A Snow Light Snow
6:15 PM 23.4 °F 11.1 °F 20.8 °F 90% 30.35 in 2.5 mi ENE 13.8 mph - N/A Snow Light Snow
6:35 PM 23.2 °F 10.3 °F 20.8 °F 91% 30.36 in 2.5 mi ENE 15.0 mph - N/A Snow Light Snow
6:55 PM 23.0 °F 9.6 °F 20.3 °F 89% 30.37 in 1.8 mi ENE 16.1 mph - N/A Snow Light Snow
7:15 PM 22.8 °F 12.2 °F 20.1 °F 89% 30.38 in 2.5 mi NE 10.4 mph - N/A Snow Light Snow
7:30 PM 22.6 °F 11.9 °F 19.8 °F 89% 30.38 in 5.0 mi NE 10.4 mph - N/A Snow Light Snow
7:55 PM 22.5 °F 9.4 °F 19.2 °F 87% 30.37 in 5.0 mi ENE 15.0 mph - N/A Snow Light Snow
8:15 PM 22.5 °F 10.5 °F 19.2 °F 87% 30.37 in 7.0 mi ENE 12.7 mph - N/A Snow Light Snow
8:35 PM 22.5 °F 9.4 °F 18.9 °F 86% 30.38 in 7.0 mi ENE 15.0 mph - N/A Snow Light Snow
8:55 PM 22.3 °F 10.2 °F 18.9 °F 87% 30.38 in 7.0 mi ENE 12.7 mph - N/A   Overcast
9:15 PM 22.1 °F 9.5 °F 18.5 °F 86% 30.38 in 7.0 mi ENE 13.8 mph - N/A   Overcast
9:35 PM 21.9 °F 10.4 °F 18.5 °F 87% 30.37 in 10.0 mi ENE 11.5 mph - N/A   Overcast
9:55 PM 21.7 °F 9.0 °F 18.0 °F 85% 30.38 in 10.0 mi ENE 13.8 mph - N/A   Overcast
10:15 PM 21.2 °F 8.9 °F 17.6 °F 86% 30.38 in 10.0 mi ENE 12.7 mph - N/A   Overcast
10:35 PM 21.2 °F 9.5 °F 17.4 °F 85% 30.37 in 10.0 mi ENE 11.5 mph - N/A   Overcast
10:55 PM 21.0 °F 8.6 °F 17.2 °F 85% 30.37 in 10.0 mi ENE 12.7 mph - N/A   Overcast
11:15 PM 20.8 °F 9.7 °F 16.7 °F 84% 30.37 in 10.0 mi ENE 10.4 mph - N/A   Overcast
11:35 PM 20.3 °F 8.3 °F 16.3 °F 85% 30.36 in 10.0 mi East 11.5 mph - N/A   Overcast
11:55 PM 19.9 °F 10.1 °F 16.2 °F 85% 30.37 in 10.0 mi ENE 8.1 mph - N/A   Overcast